Regional Weather Roundup
Issued by NWS Raleigh/Durham, NC

Home | Current Version | Previous Version | Text Only | Print | Product List | Glossary On
Versions: 1 2 3 4 5 6 7 8 9 10 11 12 13 14 15 16 17 18 19 20 21 22 23 24 25 26 27
000
ASUS42 KRAH 201110
RWRRAH
NORTH CAROLINA WEATHER ROUNDUP
NATIONAL WEATHER SERVICE RALEIGH NC
700 AM EDT SUN APR 20 2014

NOTE: "FAIR" INDICATES FEW OR NO CLOUDS BELOW 12,000 FEET WITH NO
SIGNIFICANT WEATHER AND/OR OBSTRUCTIONS TO VISIBILITY.

NCZ001-053-055-056-065-067-201200-
WESTERN NORTH CAROLINA

CITY           SKY/WX    TMP DP  RH WIND       PRES   REMARKS
ASHEVILLE      PTCLDY    42  41  96 CALM      30.26R
JEFFERSON      CLEAR     44  33  66 N3        30.26R
MORGANTON      PTCLDY    48  45  88 N5        30.29S
HICKORY        PTCLDY    48  40  73 N5        30.24R
RUTHERFORDTON  PTCLDY    50  44  79 N7        30.25R
MOUNT AIRY     CLOUDY    48  40  74 N3        30.25R
BOONE          PTCLDY    38  37  97 E3        30.27R
$$

NCZ021-022-025-041-071-084-088-201200-
CENTRAL NORTH CAROLINA

CITY           SKY/WX    TMP DP  RH WIND       PRES   REMARKS
CHARLOTTE      MOCLDY    50  42  74 N9        30.21R
GREENSBORO     MOCLDY    49  36  61 NE8       30.23R
WINSTON-SALEM  CLOUDY    49  37  63 NE6       30.25R
RALEIGH-DURHAM MOCLDY    49  33  54 NE9       30.20S
FORT BRAGG     CLOUDY    53  34  48 N10       30.14R
FAYETTEVILLE   CLOUDY    53  37  54 N15       30.13S
CHAPEL HILL    MOCLDY    51  31  46 NE9G21    30.21S
BURLINGTON     CLOUDY    49  35  58 N10       30.23R
LAURINBURG     CLOUDY    50  40  68 N14       30.14S
$$

NCZ011-015-027-028-043-044-047-080-103-201200-
NORTHEASTERN NORTH CAROLINA

CITY           SKY/WX    TMP DP  RH WIND       PRES   REMARKS
ROCKY MT-WILSO CLOUDY    51  35  54 N15       30.17S
GREENVILLE     CLOUDY    50  39  66 N9        30.17R
WASHINGTON     CLOUDY    50  44  78 N12       30.14R
ELIZABETH CITY CLOUDY    53  43  68 NE17G31   30.17R
MANTEO         CLOUDY    52  47  82 NE20G29   30.11R
CAPE HATTERAS  LGT RAIN  53  53 100 NE13G26   30.04S FOG
$$

NCZ078-087-090-091-093-098-101-201200-
SOUTHEASTERN NORTH CAROLINA

CITY           SKY/WX    TMP DP  RH WIND       PRES   REMARKS
LUMBERTON      CLOUDY    50  41  71 N12       30.12R
GOLDSBORO      CLOUDY    50  40  68 NE10G17   30.13R
KINSTON        CLOUDY    50  39  66 N12       30.14R
KENANSVILLE    CLOUDY    50  38  63 N9G22     30.13R
NEW BERN       CLOUDY    52  46  80 N12       30.10R
CHERRY POINT   CLOUDY    53  49  86 N16G28    30.07R
BEAUFORT       CLOUDY    54  52  93 N20G30    30.04R
JACKSONVILLE   CLOUDY    51  49  92 N15G29    30.08R
WILMINGTON     CLOUDY    53  48  83 N14       30.07R
$$




USA.gov is the U.S. government's official web portal to all federal, state and local government web resources and services.